Theta_e
287 287 287 287 288 287 287 287 287 287 287 287 287 287 287 287 288 287 287 287 287 287 287 287 286 286 286 286 286 285 286 286 287 288 290 291 292 292 292 293 293 294 294 294 294 294 294 294 294 294 294 294 294 294 294 294 294 293 293 293 292 293 292 291 292 292 293 293 294 295 295 295 294 294 293 292 291 291 290 290 290 289 289 288 288
287 287 287 287 287 287 287 287 287 287 287 287 287 287 287 287 287 287 287 287 287 287 287 287 287 287 287 286 286 286 286 286 285 285 286 287 289 290 291 291 292 292 293 293 293 293 294 293 293 293 293 293 293 293 293 293 293 293 292 292 292 292 292 291 291 291 291 292 293 294 294 293 293 293 293 292 292 292 291 290 289 289 288 288 288
287 287 287 287 287 287 287 287 287 287 287 287 287 287 287 287 287 287 287 287 287 287 287 287 287 287 287 287 287 286 286 286 286 285 285 285 286 287 288 289 290 291 291 291 292 292 293 293 293 293 293 293 293 293 293 293 292 292 292 292 291 291 291 291 291 290 290 291 292 293 293 292 292 293 293 293 293 292 291 290 290 289 288 288 288
288 288 287 287 287 287 287 287 287 287 287 286 286 286 286 286 286 286 286 286 286 286 286 286 286 286 286 286 286 286 286 286 286 286 286 286 285 285 285 286 287 289 290 290 290 291 291 292 292 292 292 292 292 292 292 292 292 292 292 291 291 291 291 291 291 290 290 290 291 292 292 292 293 292 292 292 291 290 290 290 289 289 288 288 288
288 288 288 288 287 287 287 287 287 287 286 286 286 286 286 286 286 286 286 286 285 285 286 286 285 286 285 285 285 286 286 286 286 286 286 286 286 285 285 285 285 286 287 288 289 290 290 290 291 291 291 291 291 291 291 291 291 291 291 291 291 291 290 290 290 290 290 290 290 290 291 292 292 292 291 290 289 289 289 289 288 288 288 288 288
288 288 288 288 287 287 287 287 287 286 286 286 286 286 286 285 285 285 285 285 285 285 285 285 285 285 285 285 285 285 285 285 285 285 286 286 286 286 286 285 285 285 285 285 287 288 289 289 290 290 290 290 291 291 291 291 291 291 291 291 290 290 290 290 290 290 289 289 289 289 289 290 290 290 290 289 289 288 288 287 287 287 287 287 287
288 288 288 287 287 287 287 286 286 286 286 286 286 285 285 285 285 285 285 285 285 285 285 285 285 284 284 284 284 284 284 284 284 284 285 285 285 285 285 285 285 285 285 285 285 285 286 287 288 289 289 290 290 290 290 290 290 290 290 290 290 290 290 290 289 289 289 289 289 289 288 288 289 289 289 289 288 288 287 286 285 285 286 286 287
288 288 287 287 287 286 286 286 285 285 285 285 285 284 284 284 284 284 284 284 284 284 284 284 284 284 284 284 284 284 284 284 284 284 284 284 284 285 285 285 285 285 285 285 285 285 285 285 285 286 288 288 289 289 289 289 289 289 289 290 290 290 289 289 289 289 288 288 288 288 288 287 288 288 288 287 286 286 286 285 285 285 285 285 286
287 287 287 286 286 285 285 285 285 284 284 284 283 283 283 284 284 283 283 283 283 283 283 283 283 283 283 283 283 283 283 283 283 283 283 283 284 284 284 285 285 285 285 285 285 285 285 285 285 285 285 286 287 288 289 289 289 289 289 289 289 289 289 289 289 288 288 288 288 288 287 286 286 286 286 285 285 286 286 285 285 285 284 284 284
287 286 286 285 285 284 284 284 283 283 283 282 282 283 283 282 282 282 282 282 282 282 283 283 283 283 283 283 283 283 282 282 282 282 282 283 284 284 284 284 285 285 285 285 285 285 285 285 285 285 285 285 285 286 288 289 289 289 289 289 289 288 288 288 288 288 288 288 288 288 287 286 286 286 285 286 286 286 286 285 284 284 284 283 283
285 285 284 284 284 283 283 282 282 281 281 281 281 281 281 281 280 280 280 280 281 281 281 282 282 282 282 282 282 282 281 281 282 282 282 283 284 284 284 284 285 285 285 285 285 285 285 285 285 285 285 285 285 285 285 287 288 289 289 289 289 289 288 288 288 288 288 288 288 288 288 287 287 286 286 286 286 286 286 285 284 284 283 283 283
283 283 282 281 281 280 280 280 280 280 279 279 279 279 279 279 278 278 278 278 278 278 279 279 280 280 280 280 280 280 280 281 281 281 282 283 283 283 284 284 285 285 285 285 285 285 285 285 285 285 285 285 285 285 285 285 286 287 288 289 289 289 289 288 288 288 288 288 288 288 288 288 288 287 286 286 285 285 285 285 284 284 284 283 284
280 280 279 278 278 277 277 278 277 278 277 277 277 277 277 276 276 276 276 276 276 276 276 277 277 278 278 279 279 279 279 279 280 281 281 282 282 283 283 283 284 284 284 284 284 285 285 285 285 285 285 285 285 285 285 285 286 286 287 288 288 289 289 289 289 289 288 288 288 288 288 288 288 288 287 286 285 285 285 284 284 284 284 284 284
277 276 276 275 275 275 275 275 275 275 275 274 274 274 274 274 274 274 274 274 274 275 275 275 275 275 276 276 277 277 277 278 279 279 280 281 281 282 282 282 283 283 283 284 284 284 284 284 284 284 284 285 285 285 285 285 286 286 287 287 288 288 288 289 289 289 289 289 288 288 288 288 288 288 288 287 286 285 285 284 284 284 284 285 285
274 274 274 274 274 274 273 273 272 272 272 271 271 271 271 271 271 271 271 272 272 272 272 272 272 272 273 273 274 274 275 276 277 278 278 279 280 280 281 281 281 282 282 282 283 283 283 284 284 284 284 284 285 285 285 285 285 286 286 287 287 287 288 288 288 288 289 289 289 289 289 288 288 288 288 287 286 286 286 285 285 285 285 285 285
272 272 272 272 272 271 271 270 270 269 269 269 268 268 268 268 268 268 268 268 268 268 269 269 269 269 270 270 271 271 272 273 274 275 276 277 278 279 279 279 280 280 280 281 281 282 282 283 283 284 284 284 285 285 285 285 285 285 286 286 286 287 287 287 288 288 288 288 289 289 289 289 288 288 288 287 287 286 285 285 285 285 284 284 284
271 271 270 270 269 268 268 268 267 267 267 266 266 266 266 266 266 266 266 266 266 266 266 267 267 267 267 268 269 269 270 271 272 273 274 275 276 276 277 278 278 279 279 280 280 281 281 282 283 283 283 284 284 284 284 285 285 286 286 286 286 286 286 287 287 287 288 288 288 288 288 289 289 288 288 288 287 286 285 284 284 284 284 284 284
270 269 268 268 267 267 266 266 265 265 265 265 264 264 264 264 264 264 264 264 264 264 265 265 265 265 266 266 267 267 267 268 269 270 271 272 273 274 275 276 277 277 278 278 279 279 279 280 281 281 282 283 283 284 284 285 285 285 286 286 286 286 286 286 287 287 287 287 287 287 288 288 288 288 288 288 287 287 285 284 284 284 284 284 284
268 267 266 266 266 265 265 265 264 264 264 263 263 263 263 263 263 263 263 263 263 263 263 263 264 264 264 265 265 265 265 265 266 268 269 270 271 272 273 274 275 276 276 277 277 277 278 278 279 279 280 281 282 283 283 284 285 285 286 286 286 286 286 286 286 286 286 286 287 287 287 287 287 288 288 288 288 287 286 285 285 284 284 284 284
266 265 265 265 264 264 264 264 263 263 263 263 262 262 262 262 262 262 262 262 262 262 262 263 263 263 263 263 263 264 264 265 265 267 268 269 270 271 272 273 274 275 275 276 276 276 277 277 277 278 278 279 280 281 282 283 284 285 285 286 286 286 286 286 286 286 286 286 286 286 286 287 287 287 287 287 287 288 287 286 285 285 284 284 284
265 264 264 264 263 263 263 263 263 262 262 262 262 262 262 262 262 262 262 262 262 262 262 262 262 262 263 263 263 264 264 264 265 266 267 268 269 270 271 271 272 273 273 274 275 275 275 275 275 275 276 277 278 279 280 281 283 284 285 285 285 286 286 286 286 286 286 286 286 286 286 286 286 286 286 287 287 287 287 287 286 285 285 285 285
264 263 263 263 263 262 262 262 262 262 262 262 261 261 261 261 261 261 261 261 261 261 262 262 262 262 263 263 263 263 264 264 264 265 266 267 268 269 270 270 271 272 272 273 274 274 274 275 275 275 276 276 277 278 278 279 280 282 284 286 286 286 286 286 286 286 286 286 286 285 285 285 285 285 286 286 286 287 287 287 287 286 285 285 285
263 263 262 262 262 262 262 262 262 261 261 261 261 261 261 261 261 261 261 261 261 261 261 262 262 262 262 263 263 263 263 263 264 265 266 267 268 268 269 269 270 271 271 272 272 273 273 273 274 275 275 276 277 278 279 280 280 281 283 285 286 287 287 287 287 286 286 286 285 285 285 285 285 285 285 285 285 286 286 286 286 286 286 285 285
262 262 262 262 262 262 262 261 261 261 261 261 261 260 260 260 260 260 261 261 261 261 261 261 262 262 262 262 262 263 263 263 264 264 265 266 267 268 268 269 269 270 270 270 270 270 271 272 272 273 274 275 276 277 278 279 280 281 282 284 285 286 287 288 288 287 286 285 285 285 285 285 285 285 285 285 285 285 285 286 286 286 286 286 285
262 262 262 262 262 261 261 261 261 261 261 261 260 260 260 260 260 260 260 260 260 261 261 261 261 261 262 262 262 262 263 263 264 264 265 266 266 267 268 268 269 269 269 269 269 269 270 271 272 273 274 275 275 276 277 278 279 280 282 283 284 285 286 287 288 287 286 285 285 285 285 285 285 285 285 285 284 284 285 285 285 285 285 285 285
262 261 261 261 261 261 261 261 261 261 261 261 260 260 260 260 260 260 260 260 260 260 260 261 261 261 261 262 262 263 263 264 264 264 265 265 266 266 267 267 268 269 269 269 270 270 270 271 271 272 273 274 274 275 276 277 278 279 281 282 284 285 285 286 287 287 287 286 286 285 285 285 285 285 285 284 284 284 284 284 284 284 284 284 284
261 261 261 261 261 261 261 261 261 261 260 260 260 260 260 260 260 259 260 260 260 260 260 261 261 261 262 262 263 264 264 264 265 265 265 266 266 266 266 267 267 268 268 268 268 269 269 270 271 272 273 274 274 275 276 276 277 279 280 281 283 284 284 285 286 286 287 287 286 286 285 285 285 284 284 284 284 284 284 283 283 283 283 283 282
261 261 261 261 261 261 261 260 260 260 260 260 260 260 260 260 259 259 260 260 260 260 261 262 262 263 264 264 265 265 266 266 266 266 267 267 267 267 267 267 267 267 268 268 268 269 270 271 272 273 273 274 274 275 275 276 277 278 280 281 282 283 284 284 285 286 286 286 286 286 286 285 285 284 284 283 283 283 283 283 283 282 282 281 280
260 260 260 260 260 260 260 260 260 260 260 260 260 260 260 260 260 260 261 261 262 262 263 264 265 265 266 266 267 267 267 267 267 268 269 269 269 269 270 270 270 269 270 270 271 271 272 273 273 273 274 274 274 275 275 276 276 278 280 281 283 283 284 284 285 285 286 286 286 286 286 285 284 284 283 283 283 283 282 282 282 281 280 279 280
260 260 260 260 260 260 260 260 260 260 260 260 260 260 260 260 261 262 262 262 263 264 265 266 266 267 267 267 267 267 268 268 268 269 269 270 270 270 271 271 271 271 272 272 273 273 273 273 274 274 274 274 275 275 276 276 276 277 279 281 282 283 283 284 284 284 285 285 286 286 285 285 284 283 283 282 282 282 281 281 281 281 279 278 279
260 260 260 260 260 260 260 260 260 260 260 260 260 260 260 260 261 262 262 263 264 265 266 266 266 267 267 268 268 268 268 268 269 269 270 270 270 270 271 271 272 272 272 273 273 273 273 274 274 274 274 274 275 275 276 276 276 277 277 279 280 282 282 283 283 284 284 284 285 285 285 285 284 283 282 282 281 281 280 280 280 280 278 278 278
259 259 259 259 259 259 259 259 259 260 260 260 260 260 260 260 260 261 262 263 264 264 265 265 266 266 267 267 268 268 268 269 269 270 270 270 270 271 271 272 272 272 273 273 274 274 274 274 274 274 274 274 275 275 275 276 276 276 277 277 279 280 281 282 282 283 283 284 284 285 285 284 284 283 282 281 281 280 279 278 278 278 278 278 278
259 259 258 258 259 259 259 259 259 259 260 260 260 260 260 260 260 261 261 262 263 264 264 265 265 266 266 267 267 268 269 269 269 270 270 271 271 271 271 272 272 272 273 273 273 273 273 273 273 273 274 274 274 275 275 275 276 276 276 277 277 278 280 281 282 282 283 283 284 284 284 284 283 282 281 281 280 279 278 277 277 277 277 277 277
258 258 258 258 258 259 259 259 259 259 259 259 259 260 260 260 260 260 261 261 262 263 263 264 264 265 266 266 267 268 268 269 269 270 270 271 271 271 272 272 272 272 272 272 272 272 272 272 273 273 273 274 274 274 275 275 275 276 276 277 277 278 278 280 281 281 282 283 283 284 284 283 283 282 281 280 279 278 277 277 276 276 276 276 276
258 258 258 258 258 258 258 259 259 259 259 259 260 260 260 260 261 261 261 261 262 262 262 263 264 264 265 266 266 267 268 268 269 269 270 270 271 271 271 271 271 270 270 270 270 271 271 272 272 273 274 274 274 274 275 275 275 276 276 277 277 278 278 279 280 280 281 282 282 283 283 283 282 281 280 279 278 277 276 276 276 276 276 276 276
258 258 258 258 258 258 258 258 259 259 259 259 260 260 260 261 261 261 261 262 262 262 262 263 263 264 264 265 265 266 267 267 268 269 269 270 271 271 271 270 270 270 270 270 270 271 271 272 273 273 274 274 274 275 275 275 276 276 276 277 277 278 278 278 279 280 281 281 282 282 282 282 281 280 280 278 278 277 277 276 276 275 275 275 275
258 258 258 258 258 258 258 258 259 259 259 260 260 260 260 261 261 261 261 262 262 262 263 263 263 263 264 264 264 265 266 267 268 268 269 270 270 270 269 269 269 270 270 270 271 271 272 272 273 274 274 275 275 275 275 276 276 276 277 277 278 278 278 279 279 280 281 281 282 282 282 281 280 280 279 278 277 277 276 276 275 275 275 275 275
257 257 257 258 258 258 258 259 259 259 259 259 260 260 260 260 261 261 262 262 262 262 262 263 263 263 264 264 264 265 266 267 267 268 269 269 269 269 269 270 270 270 271 271 271 272 272 273 273 274 274 275 275 276 276 276 276 277 277 278 278 279 279 280 280 280 281 281 281 281 281 280 280 279 278 278 277 276 276 275 274 274 274 274 274
257 257 257 257 258 258 258 258 258 259 259 259 259 260 260 260 261 261 261 261 262 262 262 263 263 263 264 264 264 265 266 267 267 266 266 266 267 268 268 268 268 268 269 269 270 270 271 271 272 273 274 275 276 277 277 277 277 277 278 278 279 279 279 280 280 280 280 281 281 281 280 279 279 278 278 277 276 275 275 274 274 274 273 273 273
257 257 257 257 257 258 258 258 258 258 259 259 259 259 260 260 260 261 261 261 261 261 262 262 263 263 263 263 264 266 266 265 264 264 264 264 265 265 266 266 266 266 266 267 267 268 268 268 270 271 273 273 275 277 277 277 278 278 278 279 279 280 280 280 280 280 280 280 280 280 279 278 278 277 276 276 275 275 274 273 273 273 273 273 273
257 257 257 257 257 257 257 257 258 258 258 259 259 259 259 260 260 260 260 260 261 261 262 262 262 262 262 263 264 265 265 263 262 262 262 262 263 264 264 264 264 264 264 265 265 266 266 266 268 270 271 271 273 275 276 276 277 278 278 279 279 279 279 279 279 280 280 279 279 278 277 277 276 276 275 275 274 274 273 273 272 272 272 272 272
256 257 257 257 257 257 257 257 258 258 258 258 258 259 259 259 259 260 260 260 260 261 261 261 261 261 261 262 263 263 262 261 261 261 261 262 262 263 263 262 262 262 262 263 264 264 264 265 266 268 269 270 271 273 274 274 275 276 276 277 278 278 278 278 278 278 278 277 277 276 276 275 275 274 274 273 273 272 272 272 272 272 271 271 271
257 257 257 257 256 256 257 257 257 257 258 258 258 258 258 258 259 259 259 259 260 260 260 261 261 261 261 261 262 262 261 260 260 261 261 261 261 261 261 261 261 261 261 262 262 263 263 264 265 266 267 268 269 271 272 273 274 274 275 275 276 276 276 276 276 276 276 275 275 274 274 273 273 273 273 272 272 271 271 271 271 271 271 270 270
257 257 257 256 256 256 257 257 257 257 257 257 257 257 258 258 258 258 259 259 259 260 260 260 260 260 260 261 261 261 260 260 260 260 260 260 260 260 260 260 260 260 260 261 261 262 263 264 264 265 267 268 269 270 271 271 272 273 273 274 274 274 274 273 273 273 274 273 273 273 272 272 272 272 271 271 271 271 270 270 270 270 270 270 270
258 257 256 256 256 256 257 257 257 257 257 257 257 257 257 257 257 258 258 259 259 259 260 260 260 260 260 260 260 260 260 260 260 260 260 260 260 260 260 260 260 260 260 261 261 262 262 263 264 265 266 267 268 268 269 270 271 271 272 272 272 272 272 272 272 272 272 272 272 271 271 271 271 271 270 270 270 270 270 270 270 270 270 269 269
258 257 256 256 256 256 256 256 256 256 256 256 256 257 257 257 257 257 258 258 259 259 259 259 260 260 260 260 260 260 260 260 260 260 260 260 260 260 260 260 260 260 260 261 261 262 262 263 263 264 265 266 267 267 268 269 269 270 270 271 271 271 271 271 271 271 271 271 271 271 270 270 270 270 270 269 269 269 269 269 269 269 269 269 269
258 257 256 256 256 256 256 256 256 256 256 256 256 256 256 257 257 257 257 258 258 258 259 259 259 259 259 260 260 260 260 260 260 260 260 260 260 260 260 260 260 261 261 261 262 262 262 263 263 264 264 265 266 266 267 267 268 269 269 269 270 270 270 270 270 270 270 270 270 270 270 269 269 269 269 269 269 269 269 269 269 269 269 269 269
258 257 257 256 256 256 256 256 256 256 256 256 256 256 256 256 257 257 257 257 258 258 258 259 259 259 259 259 259 259 259 260 260 260 260 260 260 260 260 260 261 261 262 262 262 263 263 263 263 264 264 265 265 265 266 266 267 267 268 268 268 269 269 269 269 269 269 269 269 269 269 269 268 268 268 268 268 268 268 268 268 268 268 268 269
258 257 257 256 256 256 256 255 255 255 255 255 256 256 256 256 257 257 257 257 258 258 258 258 258 258 259 259 259 259 259 260 260 260 260 260 260 261 261 261 261 261 262 262 263 263 263 264 264 264 264 264 265 265 265 265 266 266 266 267 267 268 268 268 268 269 269 269 269 268 268 268 268 268 268 268 268 268 268 267 267 268 268 268 269
259 258 257 256 256 256 256 256 256 256 256 256 255 256 256 256 257 257 257 257 257 258 258 258 258 258 258 258 258 259 259 259 259 260 260 260 261 261 262 262 262 262 262 262 263 264 264 264 264 265 265 265 265 265 265 265 265 266 266 266 267 267 267 268 268 268 268 268 268 268 268 267 267 267 267 267 267 267 267 267 267 267 267 268 268
259 258 258 257 257 256 256 256 256 257 256 256 256 256 256 256 256 256 257 257 257 257 258 258 258 258 258 258 258 258 259 259 259 260 260 260 261 261 262 262 262 262 263 263 263 264 264 264 264 264 265 265 265 266 266 266 266 266 266 266 266 267 267 267 267 267 268 268 267 267 267 267 267 267 267 267 267 267 267 267 267 267 267 267 267
Wind_Speed
11 11 12 11 12 12 12 15 17 18 20 21 23 24 25 26 27 27 28 28 29 30 30 30 30 29 27 25 24 22 22 21 21 20 19 19 19 20 21 22 23 25 26 27 27 27 28 30 31 31 31 32 34 34 35 35 35 36 36 35 35 35 33 27 18 14 18 23 27 29 31 35 39 41 42 43 44 44 44 45 44 44 44 44 44
9 9 10 9 9 10 9 10 13 15 16 18 20 22 23 25 26 27 28 29 29 29 30 31 31 31 31 30 28 26 25 23 22 21 21 22 21 21 22 22 24 25 26 27 27 27 28 29 30 30 30 32 33 33 34 35 34 35 36 35 36 36 34 31 24 17 16 20 24 28 29 33 38 40 41 43 44 44 45 46 46 46 46 46 46
9 9 10 10 9 10 9 9 11 13 14 16 17 19 20 22 24 25 27 29 30 31 31 31 31 31 32 32 31 30 29 27 25 23 22 22 22 22 23 23 25 26 26 27 27 28 29 30 30 30 29 31 32 32 33 34 34 35 36 35 35 36 35 33 30 24 20 20 22 27 29 31 36 39 41 43 44 44 45 47 47 47 47 47 47
9 9 10 11 11 12 12 12 13 16 17 18 19 20 21 22 23 24 25 27 29 31 31 31 31 31 32 32 31 31 31 30 29 28 26 25 24 23 23 23 24 26 26 27 27 27 28 30 31 30 29 30 31 31 31 32 33 33 35 35 35 36 35 33 34 32 27 23 23 26 29 31 34 37 39 41 42 43 45 45 46 47 47 47 48
8 9 10 10 12 14 15 15 17 19 20 21 23 24 25 26 27 27 27 28 29 30 31 31 31 31 32 32 32 32 31 30 30 30 30 30 28 27 25 24 24 25 26 26 27 27 28 29 30 30 29 30 31 30 29 30 31 32 34 34 34 34 34 34 36 36 32 29 27 25 27 31 33 34 37 39 40 40 41 42 43 45 45 46 47
9 10 11 11 12 14 15 16 18 19 21 24 26 27 28 29 29 29 29 29 30 31 31 31 30 31 31 31 32 32 32 31 31 32 32 32 32 31 29 28 27 26 26 26 26 27 27 29 30 29 29 30 31 31 30 30 30 31 33 33 32 33 33 33 35 35 34 34 31 26 26 30 31 32 35 38 39 39 38 38 39 40 41 43 45
10 11 12 12 14 16 16 17 18 19 22 24 26 28 29 29 29 30 30 30 32 32 32 33 32 32 33 32 32 32 32 32 33 33 34 34 34 34 33 32 31 30 29 28 27 27 27 28 29 29 29 30 31 31 31 30 31 31 32 32 32 32 32 33 32 32 33 33 31 29 27 28 31 32 33 36 38 39 38 34 33 36 39 42 44
10 11 11 13 16 18 20 22 23 24 25 26 26 26 26 27 27 28 29 30 31 32 32 32 33 34 34 34 33 32 31 31 32 32 33 34 34 35 35 35 34 33 32 30 29 28 28 28 29 29 29 30 31 32 32 31 31 31 32 31 31 31 32 32 31 30 31 30 29 29 26 25 28 30 28 28 31 33 34 32 31 35 39 41 43
11 12 14 16 19 21 24 27 29 30 31 30 30 29 29 29 28 28 28 29 30 31 31 31 32 33 33 33 34 33 32 32 32 32 32 33 34 35 36 36 36 36 35 34 33 31 30 30 30 30 30 30 31 32 32 32 32 33 32 30 29 31 31 31 29 28 28 27 27 27 23 21 26 27 26 28 33 33 32 32 32 32 33 36 40
15 17 20 22 24 27 29 31 32 33 33 32 32 32 31 31 31 30 31 31 31 31 31 31 31 31 32 32 32 32 33 34 35 35 34 32 33 34 36 37 37 37 37 37 37 36 34 33 32 32 31 31 31 32 32 33 34 35 36 33 31 31 31 30 29 28 26 24 25 25 20 19 25 28 29 33 36 33 31 34 33 28 25 26 31
19 21 23 25 28 30 31 32 33 33 33 33 33 33 33 34 34 34 33 33 33 32 33 33 33 33 32 32 33 33 35 36 37 37 35 32 32 34 35 36 37 38 38 37 38 38 38 37 35 34 33 32 33 33 32 33 34 35 37 37 36 35 33 31 30 29 27 24 26 25 21 22 28 29 29 32 33 33 34 35 32 28 25 21 19
21 23 24 26 26 26 26 27 29 29 30 31 33 35 37 39 41 40 39 38 37 37 36 36 36 36 35 35 36 37 37 39 38 35 33 32 32 34 36 36 36 37 37 38 39 40 40 39 38 38 36 35 34 34 33 33 34 34 36 37 38 39 39 37 34 31 29 26 26 26 26 28 29 28 29 30 31 33 35 34 34 34 31 26 22
22 23 24 23 22 22 22 23 25 26 27 30 33 36 38 40 41 41 41 42 42 41 40 39 38 37 36 37 38 39 40 42 41 37 35 34 34 34 35 36 37 38 38 38 39 39 39 40 40 41 41 39 37 35 34 34 34 34 35 36 37 39 40 42 41 39 36 32 29 31 33 32 30 29 31 31 32 33 32 33 35 35 32 31 34
22 22 22 21 20 20 21 22 24 27 29 31 33 34 35 36 37 37 37 39 40 41 42 42 41 41 40 39 39 41 42 43 41 39 38 38 37 36 36 37 37 39 39 39 38 38 39 39 39 41 42 43 41 39 37 35 34 34 34 35 37 39 39 41 43 44 44 40 36 38 40 37 34 34 32 30 34 36 35 35 35 35 36 39 40
21 20 19 19 19 20 21 24 26 29 30 30 31 32 32 33 34 34 35 36 38 40 41 43 44 45 44 42 42 43 44 43 41 40 40 40 39 39 38 38 37 38 38 39 39 39 40 40 39 40 41 43 44 43 41 38 36 35 34 35 37 38 39 40 42 43 44 44 42 44 45 42 39 38 34 31 34 39 40 40 40 40 42 41 38
19 18 17 18 19 20 22 25 27 28 29 30 31 31 31 32 33 33 35 37 39 40 41 41 42 44 45 44 42 45 46 44 40 40 40 40 39 39 38 38 38 38 39 39 40 40 40 41 40 40 40 41 42 43 44 42 39 36 35 36 37 38 40 41 42 42 42 43 43 45 48 46 42 40 37 34 34 36 38 37 37 37 35 29 28
18 17 18 19 20 21 23 25 27 28 29 30 31 32 32 33 34 33 34 37 39 38 39 40 41 41 42 42 40 42 46 44 40 40 40 39 39 38 37 37 36 37 39 39 39 38 37 38 38 39 39 40 40 41 41 40 39 37 36 37 37 38 40 42 43 43 43 43 44 46 48 49 45 42 40 37 34 33 32 31 32 33 28 18 17
16 18 20 22 23 24 25 26 27 29 30 30 31 33 33 34 34 33 34 36 38 39 37 39 41 40 38 38 37 39 44 45 41 40 40 39 39 39 37 35 35 36 38 38 39 40 40 40 40 40 40 42 42 41 39 37 38 38 37 37 36 36 38 41 41 41 40 40 41 44 46 47 46 44 42 40 37 33 32 33 34 32 26 20 18
17 20 22 23 25 26 26 27 28 30 31 31 31 32 34 34 34 34 34 35 38 39 37 37 40 40 36 37 37 38 41 43 40 37 38 37 36 36 36 35 34 35 37 36 37 40 42 43 43 42 41 42 43 42 41 39 39 38 38 37 35 35 39 42 41 38 35 35 38 41 43 44 44 42 42 41 40 38 37 38 36 32 29 28 26
19 21 23 24 25 26 27 28 29 29 31 32 32 32 33 34 34 34 36 36 37 39 38 37 39 41 37 36 37 37 38 39 37 35 36 36 34 34 35 34 32 33 34 34 34 37 40 42 44 44 43 42 43 42 42 41 41 41 40 38 35 37 42 43 42 37 34 34 37 38 39 40 40 38 38 40 41 41 42 42 40 36 33 32 29
21 22 23 25 26 27 27 27 28 29 30 31 33 32 32 33 34 35 36 37 37 37 38 37 38 40 37 35 35 35 34 36 36 34 34 34 33 32 32 32 32 33 35 36 36 38 40 43 45 47 46 46 46 45 44 44 42 43 43 42 42 44 44 42 41 37 34 34 36 36 35 36 34 34 35 37 39 41 43 44 43 42 39 35 30
22 23 25 26 27 27 27 27 27 29 30 30 32 33 33 33 34 34 35 36 36 37 37 37 36 37 35 33 34 34 33 34 34 33 32 32 31 31 31 32 33 33 35 36 36 36 37 38 41 43 43 44 46 47 48 47 46 46 46 46 47 48 47 44 40 35 32 33 34 32 32 32 31 32 34 35 37 40 42 44 45 45 44 43 37
23 24 26 27 28 28 28 28 28 29 30 30 31 32 33 33 33 33 33 35 35 35 35 35 35 35 34 32 32 34 35 34 33 32 32 32 31 31 31 32 33 33 34 35 34 34 35 35 36 38 39 40 42 43 45 45 45 45 46 46 46 46 46 44 39 33 32 32 31 29 29 31 31 31 33 35 37 39 40 42 44 44 43 44 43
24 26 27 28 28 29 28 29 29 30 30 30 30 31 32 33 32 32 32 33 33 33 33 33 32 31 31 31 32 34 35 34 34 33 33 34 33 33 33 33 33 34 35 36 36 36 36 36 38 40 41 42 44 45 46 46 45 44 45 45 45 44 43 40 36 32 31 30 28 27 29 31 32 33 35 36 36 35 36 37 40 42 42 42 43
25 27 28 28 29 30 30 30 30 30 29 29 30 31 32 32 31 31 31 31 31 31 31 31 30 30 30 30 32 35 37 37 37 36 35 35 35 35 35 35 34 34 36 37 37 37 38 40 42 42 42 41 41 41 43 45 46 46 46 45 44 42 40 37 35 31 28 27 27 28 30 32 34 36 36 34 30 29 31 33 35 37 38 38 38
26 27 28 29 29 30 30 30 30 29 30 30 30 31 31 30 29 30 31 30 30 30 31 30 29 30 30 32 33 36 37 37 36 37 36 35 36 36 36 36 36 36 37 38 39 39 39 39 39 40 39 38 38 38 39 40 42 44 46 46 45 42 38 34 32 30 28 28 28 29 32 35 35 33 31 28 27 28 30 30 30 31 33 34 32
27 28 29 30 30 29 29 30 30 30 30 30 30 30 30 28 28 29 30 30 30 30 29 29 28 27 27 30 32 32 33 32 32 32 32 33 35 36 36 37 37 38 38 39 40 40 39 38 37 37 38 38 38 39 39 39 39 39 41 42 41 39 37 35 34 32 30 30 30 30 33 33 30 27 27 27 28 30 30 29 28 28 30 31 28
26 29 30 30 30 28 28 29 30 30 30 30 29 29 30 29 28 29 31 31 30 29 27 26 27 27 26 27 28 27 26 27 27 28 30 32 34 33 33 34 35 36 37 38 39 39 38 37 35 35 36 35 34 34 35 36 37 37 36 38 38 38 38 37 36 34 32 31 30 29 29 28 27 27 28 27 28 30 29 29 28 28 28 27 23
27 29 29 28 28 28 28 28 29 29 30 29 28 29 30 29 28 30 32 31 28 29 30 29 29 29 29 29 27 24 23 25 29 32 34 35 34 33 31 30 31 31 32 34 36 35 33 31 30 29 29 30 29 27 28 30 32 34 33 35 36 35 34 33 32 31 30 29 28 28 27 26 26 27 27 26 28 29 29 29 29 27 26 25 23
27 28 27 27 28 28 28 28 28 28 29 29 28 30 31 30 27 27 30 31 29 29 31 32 34 34 33 32 31 29 30 32 34 35 36 35 34 34 34 33 33 32 33 34 35 33 28 25 26 26 26 26 24 22 23 25 26 28 30 30 29 28 28 28 28 28 29 28 28 27 27 25 24 24 25 25 26 27 28 30 30 27 26 25 22
26 27 27 27 28 28 28 28 28 28 28 28 27 28 31 34 34 29 26 27 29 31 31 32 33 34 34 34 34 34 35 36 36 35 35 35 35 34 33 33 33 32 33 33 32 29 25 22 22 23 24 23 22 20 21 22 22 24 26 26 25 25 25 25 26 27 29 29 28 27 26 25 24 23 24 25 25 25 26 28 28 27 27 25 22
24 27 27 28 28 28 27 27 28 27 27 27 26 26 26 31 37 40 35 29 27 28 30 31 32 32 33 33 35 35 35 36 36 35 34 34 34 32 31 32 31 31 32 31 28 24 23 21 20 21 23 23 22 22 22 22 22 23 23 23 24 25 26 27 28 29 29 28 27 26 24 24 23 24 25 25 24 23 24 25 26 26 25 23 21
25 26 27 27 27 27 26 26 26 26 26 26 26 26 25 24 27 36 43 43 38 32 28 27 27 29 32 32 33 34 35 36 36 35 33 32 33 32 31 31 31 31 31 28 24 22 22 22 22 23 24 25 25 25 25 24 24 24 24 24 24 26 28 28 28 28 28 28 27 25 24 24 25 24 24 24 24 23 23 24 24 24 22 20 19
25 25 25 25 25 26 26 26 26 26 27 26 25 25 26 25 24 26 31 38 41 41 39 35 31 29 31 33 34 34 34 34 34 34 33 33 32 32 31 30 30 30 30 27 25 24 24 25 25 25 27 27 27 26 26 26 25 24 25 27 27 26 27 26 24 22 23 25 25 24 24 25 25 24 22 22 23 22 22 23 23 23 22 20 19
25 25 24 23 23 24 25 25 26 26 27 27 26 25 25 26 26 25 24 25 28 33 39 43 42 38 34 34 34 33 33 34 34 34 33 33 32 32 29 26 24 26 27 27 27 26 25 25 25 26 27 28 28 28 27 26 26 24 24 25 27 26 26 25 24 23 23 24 24 23 23 24 25 25 24 23 23 22 21 23 24 24 23 22 20
24 25 25 24 24 25 25 26 26 26 26 26 26 26 26 26 25 26 26 25 25 27 31 36 41 41 38 34 34 33 33 34 34 33 33 32 31 29 25 21 20 22 24 26 27 27 27 28 27 27 29 30 30 31 31 29 28 27 26 26 27 27 26 25 26 27 26 25 25 24 23 22 23 25 25 24 25 26 25 25 26 25 25 24 22
23 24 25 25 26 26 27 27 26 25 25 25 25 26 26 26 25 25 25 25 25 27 28 31 34 36 37 37 37 36 35 35 35 33 31 29 27 25 23 21 22 22 22 25 27 27 29 31 30 30 31 31 31 31 31 30 29 28 27 26 27 27 27 27 28 28 26 24 23 24 25 25 25 26 25 24 24 25 25 25 24 23 23 23 22
22 22 23 24 25 26 26 27 27 26 25 25 25 25 25 25 25 24 24 25 25 26 27 28 28 28 30 35 38 39 37 35 32 30 29 27 26 25 24 23 22 21 21 24 26 26 28 31 32 32 32 32 31 29 28 27 27 27 26 25 25 27 28 28 27 26 25 23 22 23 23 24 26 28 29 27 25 24 23 23 23 21 20 21 21
23 23 23 23 22 23 24 25 26 27 26 26 25 24 24 24 24 24 24 25 25 25 26 27 26 25 27 31 34 35 33 28 25 26 27 27 25 24 23 22 22 22 22 24 25 25 26 30 31 30 31 32 30 27 26 26 25 25 24 24 24 25 26 26 25 25 25 24 24 23 24 25 26 28 28 27 25 24 24 23 24 23 22 21 21
24 24 24 23 22 22 23 24 24 24 25 25 25 25 24 24 24 24 25 25 25 25 25 25 25 27 28 29 30 30 27 24 23 24 24 24 24 24 23 23 23 23 24 24 25 25 27 29 30 29 29 30 26 21 20 22 23 24 25 24 24 24 25 26 26 26 25 24 24 24 25 25 25 25 25 24 24 25 25 25 25 25 23 22 22
23 24 25 24 23 23 23 23 23 23 23 24 24 24 24 24 23 24 24 24 24 25 25 25 26 29 29 28 28 28 25 22 22 23 22 22 23 23 23 24 25 25 25 26 26 26 28 29 29 28 29 30 29 24 20 17 17 19 21 23 24 24 23 24 25 25 23 22 21 22 23 23 24 23 23 22 22 23 24 23 23 23 22 21 21
22 24 25 25 24 23 23 23 23 23 23 23 22 22 22 22 23 23 22 23 24 25 25 25 28 29 28 27 27 27 23 21 21 22 22 22 23 23 23 25 27 26 26 26 26 27 28 29 28 27 29 30 29 26 25 23 19 16 14 15 16 16 16 17 18 19 18 17 18 19 20 21 22 22 21 21 22 22 22 21 21 21 21 21 22
21 22 23 23 23 22 22 23 23 23 23 22 22 22 21 21 22 22 21 22 23 23 24 26 28 29 28 27 27 25 23 22 22 22 22 23 23 23 25 27 28 28 27 26 25 26 26 27 27 26 26 26 25 23 22 22 19 16 12 9 8 7 8 9 11 13 14 14 15 17 17 18 18 18 19 20 21 21 21 21 21 21 20 21 22
20 21 22 22 22 22 22 22 22 22 22 21 21 21 21 21 21 22 22 22 22 23 23 25 26 27 28 28 27 26 25 24 24 23 23 24 24 25 26 28 28 28 27 26 25 25 25 26 27 26 24 23 22 21 19 17 16 13 10 7 4 2 2 3 5 8 11 14 15 16 17 18 18 19 20 20 21 21 20 20 20 20 20 20 20
19 20 20 21 21 21 22 22 21 21 21 21 21 21 21 21 21 21 21 22 22 23 24 24 25 26 26 27 27 26 25 25 25 24 24 24 25 26 27 27 27 27 26 26 26 26 25 25 25 26 25 23 21 20 18 16 13 11 9 6 4 3 2 2 3 6 9 13 15 16 17 18 18 19 19 20 21 21 20 20 20 20 20 20 19
17 18 19 20 20 21 21 21 21 21 20 20 21 21 22 22 22 22 22 22 22 23 23 25 25 25 25 26 26 26 26 26 25 25 25 25 26 26 27 27 26 26 26 27 27 27 27 26 25 25 25 24 22 21 19 17 15 13 11 8 6 5 4 2 3 6 9 12 14 16 17 17 17 18 19 19 19 19 19 19 19 19 19 19 19
16 17 18 18 19 19 20 20 20 20 19 19 20 20 21 21 22 22 22 22 22 23 23 24 25 25 25 26 26 26 26 26 25 25 26 26 26 26 26 27 27 27 27 28 28 29 29 28 27 26 25 24 24 23 21 20 18 16 14 12 10 8 5 4 5 7 9 12 14 16 17 17 17 17 18 18 18 19 18 18 18 18 18 19 18
15 16 17 17 17 17 18 19 19 19 20 20 20 20 20 21 21 22 22 23 23 23 23 24 25 25 25 25 25 26 26 25 25 26 26 27 27 27 27 27 27 27 28 29 29 29 29 29 29 29 28 27 26 25 24 23 21 20 18 16 13 10 8 7 7 9 11 12 14 15 17 18 18 17 17 18 18 18 18 18 17 18 18 18 17
15 15 16 16 16 17 17 18 18 18 19 19 20 20 21 21 21 22 22 22 23 23 23 23 24 25 25 25 26 26 26 26 27 27 28 28 28 28 28 28 28 28 28 29 30 30 30 29 28 29 29 29 28 27 26 24 23 21 20 17 14 11 10 10 10 11 12 13 15 17 18 19 19 19 18 18 18 18 18 18 18 18 18 17 16
14 14 15 15 15 16 16 17 17 18 18 19 20 20 21 21 21 22 22 22 23 23 23 23 24 24 25 25 26 26 26 26 26 26 27 28 28 28 29 29 28 28 28 28 28 29 29 29 28 28 28 28 28 28 28 26 24 22 19 17 15 14 13 13 12 13 14 15 17 19 20 21 21 21 20 20 20 20 19 19 18 18 17 17 17
13 13 14 14 15 15 16 17 17 17 18 18 19 19 20 21 21 20 21 21 21 22 23 23 23 24 24 25 25 25 26 26 26 26 26 27 27 28 28 29 28 28 28 28 28 28 28 28 28 27 27 27 27 27 27 27 25 23 21 19 18 16 15 15 15 15 16 18 20 21 23 23 23 23 22 22 21 21 20 19 19 18 17 17 18
Wind_Direction
44 41 39 37 31 27 22 18 16 14 12 11 10 9 7 4 2 359 356 354 353 352 351 352 351 350 349 349 350 352 351 350 347 340 332 323 316 311 309 306 300 296 294 292 290 288 284 282 282 280 279 276 272 270 268 266 264 260 257 254 251 250 248 244 249 259 249 241 242 244 243 238 234 232 231 230 230 230 231 233 233 232 232 231 231
40 38 37 35 28 23 17 7 6 7 7 6 4 2 360 358 355 352 349 348 347 346 345 345 344 342 341 340 340 342 342 343 342 340 336 330 324 317 312 308 304 300 296 293 291 290 287 283 282 283 280 276 273 271 269 267 265 263 259 257 253 251 249 245 247 256 256 244 237 238 239 234 231 231 229 229 231 230 229 229 230 231 232 232 231
24 22 21 21 16 14 9 357 356 359 359 357 355 353 350 349 347 343 341 340 340 340 340 340 338 336 334 334 333 334 335 335 333 332 330 328 326 322 317 311 307 303 299 296 294 292 289 285 283 283 281 277 274 272 270 268 265 263 261 259 256 255 251 247 247 251 256 253 242 236 234 231 230 231 230 231 232 230 228 228 228 228 229 230 231
5 6 5 6 4 2 358 353 350 350 351 350 348 346 342 339 337 335 333 332 332 333 334 333 332 330 329 328 328 328 328 328 327 324 323 321 319 317 316 312 307 304 301 299 298 295 290 286 284 283 281 277 274 272 269 267 264 262 262 261 258 258 255 251 249 250 255 257 248 239 236 235 235 234 231 229 228 227 227 227 227 226 226 228 230
345 347 348 352 355 354 351 347 344 343 342 341 340 337 334 331 329 328 326 325 325 325 326 326 325 323 323 323 322 322 322 322 320 318 317 317 314 311 309 308 304 303 301 300 298 296 292 288 285 284 280 275 273 272 269 267 264 262 261 260 259 259 258 254 251 251 252 254 253 247 239 236 236 234 230 225 222 224 226 226 226 225 225 226 228
332 334 335 338 344 345 344 341 338 336 333 331 330 328 326 325 323 322 321 320 320 319 319 318 317 316 316 316 316 316 318 317 314 313 311 311 311 307 305 303 301 299 297 297 297 295 292 290 287 284 280 274 272 272 270 267 265 262 259 259 258 258 257 255 253 252 251 252 254 250 239 233 231 230 229 224 219 219 220 222 225 225 223 223 225
326 329 330 334 340 344 343 339 334 330 326 324 322 320 320 320 319 318 318 316 316 316 316 315 313 312 311 311 310 310 311 310 309 308 307 307 306 304 301 300 298 295 293 292 292 292 291 289 287 284 279 275 273 272 270 268 265 262 260 259 257 256 254 254 253 251 251 252 253 248 241 235 229 228 230 226 221 221 217 213 218 222 222 222 222
334 337 338 339 340 339 336 332 329 327 324 322 320 318 317 316 315 314 314 313 313 313 312 311 309 308 308 307 306 305 304 302 301 300 301 302 301 299 298 297 295 292 290 287 286 285 285 285 285 284 281 278 275 272 270 268 265 263 261 258 255 252 251 251 250 248 248 250 252 249 243 233 226 225 225 219 216 221 219 212 214 218 218 221 222
343 341 338 335 334 331 329 327 324 323 322 322 322 321 320 319 317 315 314 312 311 310 309 306 304 303 303 302 302 302 299 297 296 295 294 295 295 293 292 293 292 289 288 287 285 283 281 280 280 282 283 282 279 275 270 267 264 263 262 258 253 250 248 247 246 245 245 247 250 249 242 232 223 217 213 210 212 219 218 215 220 222 218 220 223
337 334 332 331 331 328 326 324 322 321 321 323 323 323 322 321 320 318 317 316 315 314 312 308 304 302 301 299 298 297 295 293 293 293 292 290 288 287 286 286 287 286 285 284 285 284 282 280 278 278 279 279 279 277 272 268 264 262 261 259 254 250 247 246 244 242 242 243 246 246 241 237 230 219 214 216 216 217 214 212 218 220 214 219 228
330 329 328 327 325 323 321 319 318 319 321 322 322 321 321 320 319 318 318 317 316 314 312 308 305 303 301 299 297 294 292 291 291 291 289 286 284 283 283 282 281 281 280 280 281 282 282 280 280 279 276 274 274 274 273 270 266 263 261 259 255 252 248 246 245 243 241 242 245 244 240 243 241 230 223 222 217 214 214 212 212 211 206 211 226
327 325 324 323 321 320 317 315 315 316 317 317 316 315 314 314 315 315 315 315 313 311 308 305 303 301 300 298 296 294 292 291 291 288 286 284 283 283 282 281 280 277 276 277 278 279 279 279 279 278 277 274 272 271 270 269 267 265 263 260 257 255 252 249 248 245 242 242 245 244 241 244 247 239 228 224 218 215 215 213 211 210 209 212 218
323 321 321 322 321 319 317 316 314 313 313 312 311 311 311 311 311 312 312 312 311 309 307 305 303 301 300 297 296 294 293 292 292 290 289 287 286 284 283 282 280 278 277 275 274 274 275 276 277 277 276 275 273 270 266 265 264 263 263 261 259 257 255 252 251 249 247 245 246 247 244 244 247 245 236 228 219 215 214 213 214 213 214 219 222
324 323 323 324 324 323 320 317 314 312 312 312 311 311 311 311 310 310 311 309 308 307 306 305 304 302 300 299 297 295 293 293 293 294 293 292 291 289 287 284 281 279 277 275 273 272 271 271 271 271 273 273 273 270 267 263 261 259 258 257 256 256 254 253 252 250 249 246 245 248 248 246 245 247 245 235 223 218 216 215 216 216 218 225 227
327 327 326 326 325 323 319 316 314 314 314 314 313 312 311 310 309 309 308 306 304 303 302 302 301 300 300 300 299 297 295 294 296 296 296 296 296 294 292 288 285 281 278 276 274 273 272 270 268 266 267 268 268 268 268 266 264 260 256 255 255 255 254 252 251 250 248 245 245 247 250 249 246 247 248 243 234 229 226 224 223 221 222 228 230
330 329 326 325 323 321 318 316 315 316 315 315 314 313 311 310 308 308 307 304 302 302 301 301 300 300 300 301 301 299 298 298 299 299 298 298 298 298 295 292 288 284 281 279 276 274 272 270 268 266 264 264 264 264 265 266 265 262 259 257 256 255 255 255 255 253 250 248 247 248 250 250 248 246 245 245 243 237 230 227 226 223 221 225 229
330 327 323 323 322 320 319 318 316 316 317 316 314 313 311 309 308 309 308 305 304 303 302 301 300 300 301 302 303 302 300 300 302 302 301 299 299 299 297 294 290 287 284 282 279 277 274 270 269 268 266 265 264 264 263 262 261 260 258 257 255 253 254 256 257 255 253 251 250 250 253 253 250 247 243 241 243 238 227 221 221 219 216 220 229
325 322 322 322 322 320 320 319 318 317 317 315 313 311 310 309 308 309 307 304 302 302 302 301 300 300 301 302 304 304 301 302 304 304 302 301 299 297 295 293 290 287 284 283 281 280 279 276 273 270 268 267 266 265 262 259 257 256 255 254 253 251 251 253 254 253 252 250 250 250 252 253 251 249 245 240 238 234 225 222 222 217 213 218 226
322 321 321 321 320 320 320 319 318 317 315 313 311 309 308 308 307 306 305 302 301 300 301 301 299 300 302 301 302 304 303 303 306 307 305 304 302 298 295 291 288 285 283 282 281 279 278 276 275 272 271 270 269 267 264 260 256 254 251 251 249 248 251 251 250 249 246 245 246 246 248 250 248 247 246 242 238 233 229 229 227 220 217 222 225
320 320 319 319 318 318 319 317 316 315 312 311 310 309 308 307 306 305 304 302 300 299 300 299 298 299 301 302 302 303 303 304 306 307 307 306 304 301 297 292 288 286 286 284 281 280 278 277 276 275 274 274 273 271 268 264 259 255 251 248 246 247 250 251 249 247 243 241 244 244 244 247 246 244 243 242 239 235 232 231 229 224 223 226 226
320 319 317 317 317 317 317 316 315 313 312 311 310 308 307 306 305 305 304 302 300 299 299 299 298 298 301 302 301 302 302 303 305 307 307 306 305 302 297 293 291 290 289 286 282 279 278 277 276 275 275 275 274 273 271 268 265 260 253 248 247 248 249 249 249 248 243 241 243 244 243 244 244 242 240 239 237 234 231 230 228 226 226 227 227
320 318 317 317 317 317 316 316 315 314 313 312 309 307 307 307 305 305 304 302 301 300 300 300 299 299 301 302 301 302 302 303 304 305 306 306 305 303 299 295 293 290 287 284 281 279 278 278 277 276 275 274 272 271 270 268 266 263 258 253 250 249 248 249 249 246 240 238 239 239 239 239 239 238 237 236 235 233 230 229 229 227 227 228 228
320 318 318 318 317 317 317 317 316 315 313 312 309 307 307 307 307 306 304 302 301 300 301 301 300 300 301 301 302 303 303 303 303 303 303 304 303 302 299 297 295 292 289 287 287 286 285 284 283 282 280 279 277 274 272 270 266 262 259 255 252 249 248 247 246 241 236 234 233 232 234 235 235 235 235 234 234 233 230 229 229 228 228 229 229
320 319 319 318 318 319 318 318 317 316 315 314 311 308 308 308 306 305 304 302 301 300 300 301 301 300 300 301 302 302 302 301 300 298 298 299 299 299 297 296 295 293 290 288 289 288 287 285 285 284 283 282 280 278 276 274 270 266 261 257 254 250 247 244 242 237 231 229 228 228 230 233 232 233 235 235 234 233 231 231 231 230 229 230 230
321 321 320 319 320 320 318 318 318 317 317 316 313 310 308 307 305 304 304 303 301 299 299 300 299 298 297 297 297 299 299 298 296 295 294 293 293 293 291 291 290 289 286 284 285 285 285 284 284 283 284 284 284 283 280 275 271 269 265 259 254 249 246 242 239 235 228 225 225 226 229 233 234 235 238 238 235 234 232 231 232 231 231 231 232
323 322 321 320 320 320 319 318 318 318 317 316 313 308 305 303 302 303 303 301 300 298 298 298 297 295 294 293 293 295 296 295 292 292 291 290 288 287 286 285 285 284 282 280 280 282 283 284 284 283 285 287 289 290 289 284 278 272 266 260 253 247 244 242 238 234 230 226 225 226 229 233 236 237 238 236 232 232 230 228 228 228 227 226 226
323 321 321 321 320 320 319 317 317 318 317 315 311 306 303 302 301 300 300 299 299 297 296 296 294 289 288 291 292 293 294 293 290 290 289 286 284 283 281 281 280 280 279 277 277 278 279 280 281 283 284 286 287 288 290 291 289 279 266 259 253 246 242 243 241 236 233 231 229 229 231 233 234 233 232 229 228 230 229 225 223 222 220 219 218
323 320 320 320 319 318 318 316 316 316 314 312 308 304 304 303 301 299 298 297 296 294 292 290 289 289 290 293 294 294 295 296 295 294 292 288 285 283 280 276 274 271 271 272 273 275 275 276 279 281 283 285 287 288 288 291 293 287 270 257 253 247 242 241 240 237 235 234 233 233 232 230 227 226 225 224 225 227 225 221 219 219 213 208 208
322 320 319 318 318 318 317 316 316 314 311 308 305 304 304 303 299 298 299 298 294 293 294 294 294 296 297 298 298 298 297 298 299 300 300 298 297 297 294 288 283 277 275 276 278 280 281 280 281 283 285 286 286 286 287 288 292 293 280 260 249 243 237 234 235 237 236 234 233 233 231 227 224 222 220 218 221 224 220 215 214 213 206 203 206
321 318 318 318 317 318 317 316 315 313 309 306 305 306 307 306 300 295 297 299 299 297 298 299 301 302 301 300 300 300 299 301 303 304 304 302 301 301 299 298 297 293 291 290 289 288 285 282 281 281 282 282 280 280 284 286 288 294 291 275 255 242 235 231 232 235 238 238 236 233 231 227 223 218 214 213 218 218 214 212 211 205 199 200 206
317 316 317 317 317 317 316 315 314 311 307 306 306 308 311 312 311 306 300 299 304 305 304 303 304 305 304 303 303 303 303 305 306 305 304 303 302 302 300 299 298 297 296 294 291 286 282 279 278 279 278 277 276 274 277 282 283 287 293 289 274 259 247 240 237 236 237 237 237 234 231 227 221 215 211 211 213 211 207 207 205 202 200 202 204
314 313 315 315 316 316 315 315 313 309 307 307 309 310 312 314 317 318 317 313 309 308 308 308 308 309 308 307 307 307 307 307 307 307 307 307 307 307 305 303 301 299 298 296 292 287 284 281 280 282 280 277 276 275 273 275 278 279 283 286 284 274 261 249 243 241 238 235 234 232 231 227 221 215 211 209 208 204 200 199 199 199 200 203 203
314 313 314 315 316 316 315 315 312 309 307 308 310 312 313 311 312 316 320 321 320 316 312 310 309 309 310 310 310 310 310 311 312 313 313 312 311 311 309 307 306 304 302 301 297 292 290 287 284 283 281 276 275 275 273 271 271 272 274 276 278 279 271 257 245 240 238 236 233 230 228 226 222 215 209 206 203 200 196 196 196 196 196 198 198
318 315 315 315 314 314 315 314 311 308 307 307 308 310 311 310 307 307 312 318 321 322 321 319 317 315 314 313 313 314 314 316 316 316 316 314 313 312 313 313 311 310 308 305 299 293 290 288 285 282 280 277 275 273 271 269 267 266 268 270 270 272 273 267 256 247 244 240 237 232 227 223 217 210 203 200 198 198 197 195 193 192 193 195 193
323 321 320 319 316 315 315 313 310 307 306 307 308 309 308 309 308 306 305 307 310 313 315 317 319 320 319 316 316 317 318 317 317 317 317 315 314 316 318 316 311 308 305 302 297 292 289 286 283 280 278 277 275 272 270 268 266 262 263 267 267 265 265 262 258 255 252 247 241 236 230 221 211 204 199 195 192 194 196 195 195 194 194 193 190
327 324 323 322 322 320 317 313 310 307 306 306 308 309 309 308 307 306 306 305 303 302 304 309 314 318 318 318 319 320 320 319 318 317 316 315 315 317 317 310 302 299 298 296 296 294 291 288 285 282 280 277 273 271 268 266 265 263 261 262 263 261 258 256 252 248 245 242 239 235 228 220 209 201 197 195 194 196 197 196 196 197 195 192 189
328 324 323 324 325 323 319 315 311 309 308 309 309 309 309 308 307 307 306 305 305 305 306 308 313 316 319 322 325 325 323 320 318 317 315 315 317 318 313 304 298 295 293 295 297 296 294 293 292 289 287 282 275 270 266 262 262 262 260 258 255 253 252 252 247 238 233 233 235 231 222 215 209 202 197 196 197 199 198 196 194 195 194 191 186
328 324 322 324 326 323 320 316 314 314 313 313 313 312 310 309 310 310 310 310 310 310 310 312 314 315 317 321 325 325 323 321 322 323 323 325 326 325 320 314 309 306 304 305 307 305 302 302 301 298 296 291 281 270 264 262 261 261 260 258 255 251 248 246 239 230 226 229 233 229 219 212 208 203 200 198 197 196 194 191 189 187 187 186 184
328 324 324 327 327 323 319 316 316 317 318 318 318 317 314 313 314 315 315 315 315 314 314 315 316 318 319 321 324 325 326 328 331 331 330 330 331 331 329 327 324 321 318 316 317 316 313 311 309 307 306 303 293 275 263 260 261 261 261 259 257 252 246 239 232 228 226 227 228 225 219 214 209 204 201 198 194 190 187 186 186 184 182 184 185
328 326 329 332 329 323 320 318 316 318 320 320 320 319 317 317 317 317 318 318 316 316 317 316 317 322 324 324 326 330 332 333 332 329 327 327 327 328 331 331 328 325 322 320 320 321 319 316 314 314 318 323 321 304 279 267 263 262 261 260 259 254 243 232 225 224 224 225 222 218 214 210 204 198 196 194 191 187 185 183 185 185 183 183 182
330 329 332 334 330 325 322 320 320 321 321 321 320 320 320 320 320 320 320 320 318 318 319 319 321 325 327 327 331 335 336 332 328 326 325 325 324 325 327 329 328 325 323 321 321 321 320 319 318 319 327 340 347 345 333 315 297 282 272 263 257 248 234 222 219 221 224 223 217 209 204 199 193 188 188 187 185 183 181 180 180 180 178 176 173
333 333 334 334 331 327 324 323 325 326 326 324 324 323 322 322 323 323 322 322 322 322 321 322 325 328 331 333 336 339 339 335 331 329 327 326 325 326 327 329 330 328 326 325 325 326 326 327 326 326 333 344 351 353 351 347 339 324 300 275 257 243 228 221 221 221 219 213 204 196 190 186 183 181 180 177 174 173 173 172 172 171 169 167 166
335 337 336 333 331 327 325 326 329 329 329 328 327 327 328 327 327 327 326 325 326 326 325 326 328 331 334 337 341 344 345 343 340 338 335 333 332 332 332 332 334 335 334 334 334 335 339 344 345 342 343 350 356 358 357 353 348 342 330 307 282 261 242 228 219 210 201 191 184 179 174 170 169 167 165 165 165 165 164 164 164 164 163 162 162
340 340 338 334 333 331 330 331 331 330 330 331 330 332 335 334 333 333 332 331 331 331 330 330 331 333 336 340 345 348 349 348 347 345 343 341 340 339 338 339 341 342 344 345 345 347 351 358 359 358 358 0 3 5 6 3 357 354 348 337 328 320 267 211 192 188 183 174 166 162 160 158 158 157 157 159 159 158 157 159 159 158 157 157 158
343 342 339 336 335 334 334 335 334 332 333 334 335 338 341 342 340 340 338 336 335 335 335 336 338 338 339 343 347 349 350 350 350 349 348 348 346 346 346 347 349 350 352 354 356 359 1 4 6 7 8 10 11 12 14 16 16 16 14 12 20 40 63 129 163 172 170 163 156 152 150 151 151 152 152 155 156 155 155 157 156 155 155 156 156
345 344 341 338 336 335 336 337 337 336 336 338 339 341 344 346 346 345 342 341 339 338 339 341 343 344 345 347 349 351 352 353 354 355 355 354 354 354 355 357 359 2 4 6 7 9 11 12 13 14 15 16 19 20 22 25 28 32 35 38 45 54 62 95 147 157 157 155 151 147 145 144 144 146 148 149 151 151 150 152 153 153 153 153 153
346 345 343 341 338 336 337 338 339 340 341 343 344 344 346 347 349 349 348 346 344 343 343 345 347 348 349 350 352 354 355 356 358 360 1 2 3 3 4 6 7 10 13 15 16 17 17 18 21 22 23 24 26 28 30 32 33 36 39 42 45 52 66 95 127 139 145 148 148 146 143 139 136 139 142 143 143 143 143 144 147 148 147 148 149
346 346 344 342 340 338 338 340 342 344 346 347 348 348 348 349 351 352 352 351 350 348 348 348 350 351 352 353 355 357 358 360 2 4 5 6 8 8 9 11 12 13 16 19 21 22 22 22 25 28 30 31 32 33 36 38 40 42 44 45 47 53 67 89 110 123 132 137 138 137 135 131 129 130 132 133 134 135 134 134 136 137 138 140 142
344 345 343 342 341 340 341 343 344 346 349 350 350 351 352 353 354 354 353 353 353 353 353 352 353 354 355 356 357 359 1 3 5 7 9 10 10 12 13 14 16 17 20 22 25 26 26 26 27 29 32 35 36 38 39 41 44 46 48 49 53 60 70 86 101 113 123 127 129 128 126 123 120 121 122 124 125 126 126 126 127 129 130 131 132
340 341 340 340 341 343 345 347 349 351 354 355 353 352 353 353 353 354 353 352 353 355 356 356 356 356 356 358 359 0 2 3 5 7 10 11 14 16 17 18 20 22 24 26 28 30 31 32 31 31 32 34 36 39 41 42 44 48 52 54 58 65 74 85 95 106 114 118 120 121 121 119 117 116 116 118 119 119 118 119 121 122 121 121 122
335 336 337 339 341 344 346 350 352 354 356 356 354 353 352 352 351 351 351 350 351 352 354 356 357 357 359 1 2 2 3 4 5 7 10 12 15 17 19 20 23 25 27 30 32 33 33 35 35 36 37 37 38 41 43 44 45 47 51 56 61 66 75 84 92 101 110 115 117 118 118 117 115 114 114 115 115 114 114 116 118 118 115 114 116